Location: Castiglione Fibocchi
(43.5333°N, 11.7667°E)
Time: 10:15:33
(UTC+00:00)

IDEFIX/ARIANE 42P - Pass Details

Date: 15 August 2020
Orbit: 786 x 802 km, 98.4° (Epoch: 18 September)

Event Time Altitude Azimuth Distance (km) Brightness Sun altitude
Rises 01:42:42 0° 22° (NNE) 3,294 7.0 -23.6°
Reaches altitude 10° 01:45:14 10° 31° (NNE) 2,362 6.1 -23.3°
Maximum altitude 01:49:59 35° 97° (E) 1,262 3.9 -22.8°
Enters shadow 01:53:20 17° 153° (SSE) 1,893 4.3 -22.4°
